Location: Miss�
(46.9484°N, 0.1922°W)
Time: 08:48:56
(UTC+00:00)

Cosmos 1503 Rocket - Pass Details

Date: 02 March 2021
Orbit: 753 x 790 km, 74.0° (Epoch: 13 April)

Event Time Altitude Azimuth Distance (km) Brightness Sun altitude
Rises 19:04:24 0° 338° (NNW) 3,233 7.6 -13.8°
Reaches altitude 10° 19:06:47 10° 340° (NNW) 2,298 6.8 -14.2°
Maximum altitude 19:12:00 78° 67° (ENE) 776 3.9 -15.1°
Drops below altitude 10° 19:17:09 10° 154° (SSE) 2,272 6.1 -16.0°
Enters shadow 19:18:07 - 155° (SSE) 2,646 6.5 -16.2°
